• In Moldova, Republic
  • List of Countries
  • For 7 days
  • Water Temperature
  • Satellite Maps
  • Weather Map
  • Weather Widgets
  • user-avatar
    Login

    Hourly Weather Ischgl

    Today, 25 February, Saturday

    Time Temperature Precipitation Wind Pressure Humidity
    00:00 -14°C° 0.1 mm 1 mps 566 mmHg 98%
    01:00 -16°C° 0 mm 1 mps 566 mmHg 98%
    02:00 -16°C° 0 mm 1 mps 566 mmHg 98%
    03:00 -17°C° 0 mm 1 mps 565 mmHg 98%
    04:00 -18°C° 0 mm 1 mps 565 mmHg 98%
    05:00 -19°C° 0 mm 1 mps 565 mmHg 98%
    06:00 -19°C° 0 mm 1 mps 565 mmHg 97%
    07:00 -19°C° 0 mm 1 mps 565 mmHg 96%
    08:00 -15°C° 0 mm 1 mps 568 mmHg 93%
    09:00 -11°C° 0 mm 1 mps 570 mmHg 91%
    10:00 -8°C° 0 mm 1 mps 572 mmHg 88%
    11:00 -6°C° 0 mm 0 mps 573 mmHg 88%
    12:00 -5°C° 0 mm 0 mps 573 mmHg 87%
    13:00 -3°C° 0 mm 1 mps 573 mmHg 87%
    14:00 -3°C° 0 mm 1 mps 573 mmHg 88%
    15:00 -2°C° 0 mm 1 mps 573 mmHg 90%
    16:00 -3°C° 0 mm 0 mps 573 mmHg 92%
    17:00 -6°C° 0 mm 1 mps 571 mmHg 92%
    18:00 -10°C° 0 mm 1 mps 569 mmHg 93%
    19:00 -13°C° 0 mm 1 mps 568 mmHg 94%
    20:00 -12°C° 0 mm 1 mps 568 mmHg 93%
    21:00 -12°C° 0 mm 1 mps 568 mmHg 92%
    22:00 -13°C° 0 mm 2 mps 569 mmHg 91%
    23:00 -13°C° 0 mm 2 mps 569 mmHg 89%

    Tomorrow, 26 February, Sunday

    Time Temperature Precipitation Wind Pressure Humidity
    00:00 -13°C° 0 mm 2 mps 569 mmHg 88%
    01:00 -13°C° 0 mm 2 mps 569 mmHg 87%
    02:00 -13°C° 0 mm 2 mps 569 mmHg 86%
    03:00 -12°C° 0 mm 2 mps 569 mmHg 85%
    04:00 -12°C° 0 mm 2 mps 569 mmHg 83%
    05:00 -12°C° 0 mm 2 mps 568 mmHg 83%
    06:00 -12°C° 0 mm 2 mps 568 mmHg 82%
    07:00 -12°C° 0 mm 2 mps 568 mmHg 81%
    08:00 -7°C° 0 mm 1 mps 570 mmHg 85%
    09:00 -3°C° 0 mm 1 mps 571 mmHg 88%
    10:00 -1°C° 0 mm 1 mps 573 mmHg 92%
    11:00 0°C° 0 mm 1 mps 573 mmHg 92%
    12:00 +1°C° 0 mm 1 mps 573 mmHg 92%
    13:00 +1°C° 0 mm 1 mps 573 mmHg 91%
    14:00 0°C° 0 mm 0 mps 573 mmHg 92%
    15:00 0°C° 0 mm 0 mps 573 mmHg 93%
    16:00 0°C° 0 mm 0 mps 572 mmHg 94%
    17:00 -2°C° 0 mm 0 mps 571 mmHg 93%
    18:00 -4°C° 0 mm 0 mps 570 mmHg 93%
    19:00 -6°C° 0 mm 0 mps 569 mmHg 92%
    20:00 -7°C° 0 mm 0 mps 568 mmHg 91%
    21:00 -8°C° 0 mm 0 mps 568 mmHg 90%
    22:00 -8°C° 0 mm 0 mps 568 mmHg 89%
    23:00 -8°C° 0 mm 0 mps 568 mmHg 89%

    Day after tomorrow, 27 February, Monday

    Time Temperature Precipitation Wind Pressure Humidity
    00:00 -8°C° 0 mm 1 mps 568 mmHg 89%
    01:00 -8°C° 0 mm 1 mps 568 mmHg 90%
    02:00 -8°C° 0 mm 1 mps 568 mmHg 90%
    03:00 -8°C° 0 mm 1 mps 567 mmHg 91%
    04:00 -9°C° 0 mm 2 mps 567 mmHg 92%
    05:00 -9°C° 0 mm 2 mps 567 mmHg 92%
    06:00 -9°C° 0 mm 2 mps 567 mmHg 92%
    07:00 -9°C° 0 mm 2 mps 567 mmHg 91%
    08:00 -7°C° 0 mm 2 mps 568 mmHg 90%
    09:00 -5°C° 0 mm 2 mps 568 mmHg 90%
    10:00 -3°C° 0 mm 2 mps 569 mmHg 89%
    11:00 -3°C° 0 mm 2 mps 569 mmHg 89%
    12:00 -2°C° 0 mm 2 mps 569 mmHg 88%
    13:00 -1°C° 0 mm 2 mps 569 mmHg 88%
    14:00 -2°C° 0 mm 2 mps 568 mmHg 89%
    15:00 -2°C° 0 mm 2 mps 568 mmHg 90%
    16:00 -2°C° 0 mm 2 mps 567 mmHg 91%
    17:00 -4°C° 0 mm 2 mps 566 mmHg 92%
    18:00 -6°C° 0 mm 2 mps 566 mmHg 93%
    19:00 -8°C° 0 mm 3 mps 565 mmHg 94%
    20:00 -9°C° 0 mm 3 mps 565 mmHg 94%
    21:00 -9°C° 0 mm 3 mps 564 mmHg 93%
    22:00 -9°C° 0 mm 3 mps 564 mmHg 93%
    23:00 -9°C° 0 mm 3 mps 564 mmHg 93%

    28 February, Tuesday

    Time Temperature Precipitation Wind Pressure Humidity
    00:00 -9°C° 0 mm 3 mps 564 mmHg 93%
    01:00 -9°C° 0 mm 3 mps 564 mmHg 93%
    02:00 -9°C° 0.1 mm 3 mps 564 mmHg 93%
    03:00 -9°C° 0.1 mm 3 mps 564 mmHg 93%
    04:00 -8°C° 0.1 mm 3 mps 563 mmHg 93%
    05:00 -8°C° 0.2 mm 3 mps 563 mmHg 93%
    06:00 -8°C° 0.2 mm 3 mps 563 mmHg 93%
    07:00 -7°C° 0.2 mm 2 mps 563 mmHg 93%
    08:00 -7°C° 0.3 mm 3 mps 563 mmHg 92%
    09:00 -5°C° 0.3 mm 3 mps 563 mmHg 91%
    10:00 -4°C° 0.3 mm 3 mps 563 mmHg 90%
    11:00 -4°C° 0.6 mm 3 mps 563 mmHg 90%
    12:00 -4°C° 0.6 mm 3 mps 562 mmHg 90%
    13:00 -2°C° 0.6 mm 3 mps 562 mmHg 90%
    14:00 -4°C° 1.1 mm 3 mps 561 mmHg 91%
    15:00 -4°C° 1.1 mm 3 mps 561 mmHg 93%
    16:00 -5°C° 1.1 mm 3 mps 561 mmHg 95%
    17:00 -6°C° 1.9 mm 3 mps 561 mmHg 96%
    18:00 -7°C° 1.9 mm 3 mps 561 mmHg 97%
    19:00 -8°C° 1.9 mm 3 mps 561 mmHg 98%
    20:00 -9°C° 1.2 mm 3 mps 561 mmHg 97%
    21:00 -10°C° 1.2 mm 3 mps 561 mmHg 97%
    22:00 -12°C° 1.2 mm 3 mps 561 mmHg 96%
    23:00 -13°C° 0 mm 3 mps 561 mmHg 96%

    1 March, Wednesday

    Time Temperature Precipitation Wind Pressure Humidity
    00:00 -13°C° 0 mm 2 mps 560 mmHg 95%
    01:00 -14°C° 0 mm 2 mps 560 mmHg 95%
    02:00 -15°C° 0 mm 2 mps 560 mmHg 95%
    03:00 -15°C° 0 mm 2 mps 560 mmHg 95%
    04:00 -16°C° 0 mm 2 mps 560 mmHg 95%
    05:00 -16°C° 0.1 mm 2 mps 561 mmHg 95%
    06:00 -16°C° 0.1 mm 2 mps 561 mmHg 95%
    07:00 -16°C° 0.1 mm 2 mps 562 mmHg 95%
    08:00 -14°C° 0.2 mm 2 mps 563 mmHg 93%
    09:00 -12°C° 0.2 mm 2 mps 565 mmHg 92%
    10:00 -10°C° 0.2 mm 3 mps 567 mmHg 90%
    11:00 -8°C° 0.1 mm 2 mps 567 mmHg 89%
    12:00 -8°C° 0.1 mm 2 mps 568 mmHg 88%
    13:00 -7°C° 0.1 mm 2 mps 568 mmHg 87%
    14:00 -6°C° 0 mm 2 mps 568 mmHg 89%
    15:00 -4°C° 0 mm 1 mps 568 mmHg 90%
    16:00 -4°C° 0 mm 1 mps 568 mmHg 91%
    17:00 -6°C° 0 mm 1 mps 568 mmHg 92%
    18:00 -9°C° 0 mm 2 mps 567 mmHg 92%
    19:00 -10°C° 0 mm 2 mps 566 mmHg 93%
    20:00 -10°C° 0.2 mm 2 mps 567 mmHg 93%
    21:00 -9°C° 0.2 mm 2 mps 567 mmHg 92%
    22:00 -9°C° 0.2 mm 2 mps 567 mmHg 92%
    23:00 -8°C° 0.4 mm 2 mps 568 mmHg 92%

    2 March, Thursday

    Time Temperature Precipitation Wind Pressure Humidity
    00:00 -8°C° 0.4 mm 2 mps 568 mmHg 93%
    01:00 -7°C° 0.4 mm 2 mps 568 mmHg 93%
    02:00 -7°C° 0.7 mm 2 mps 569 mmHg 94%
    03:00 -7°C° 0.7 mm 2 mps 569 mmHg 95%
    04:00 -6°C° 0.7 mm 2 mps 570 mmHg 96%
    05:00 -7°C° 0.1 mm 2 mps 570 mmHg 96%
    06:00 -7°C° 0.1 mm 2 mps 571 mmHg 96%
    07:00 -7°C° 0.1 mm 2 mps 571 mmHg 96%
    08:00 -7°C° 0 mm 2 mps 572 mmHg 95%
    09:00 -6°C° 0 mm 2 mps 572 mmHg 94%
    10:00 -6°C° 0 mm 2 mps 573 mmHg 92%
    11:00 -5°C° 0 mm 2 mps 573 mmHg 91%
    12:00 -4°C° 0 mm 2 mps 573 mmHg 90%
    13:00 -2°C° 0 mm 1 mps 574 mmHg 89%
    14:00 -2°C° 0 mm 1 mps 574 mmHg 89%
    15:00 -2°C° 0 mm 1 mps 573 mmHg 90%
    16:00 -2°C° 0 mm 1 mps 573 mmHg 91%
    17:00 -7°C° 0 mm 1 mps 571 mmHg 91%
    18:00 -11°C° 0 mm 1 mps 569 mmHg 90%
    19:00 -15°C° 0 mm 1 mps 567 mmHg 90%
    20:00 -16°C° 0 mm 2 mps 568 mmHg 88%
    21:00 -14°C° 0 mm 2 mps 568 mmHg 86%
    22:00 -13°C° 0 mm 2 mps 569 mmHg 84%
    23:00 -13°C° 0 mm 2 mps 569 mmHg 85%
    Show more